GW2055 Weather Reports


time (UTC)temp
C
wind
direction
speed
KPH
gust
KPH
rain 1hr
cm
rain 24hr
cm
rain mn
cm
humidity
%
barometer
mb
20260509094558 10 0 0.0 0.0 0.00 0.03 0.00 82 1010.2
20260509093057 10 0 0.0 0.0 0.00 0.03 0.00 82 1010.3
20260509091557 10 0 0.0 0.0 0.00 0.03 0.00 82 1010.5
20260509090101 11 0 0.0 1.6 0.00 0.03 0.00 82 1010.5
20260509084557 10 0 0.0 0.0 0.00 0.03 0.00 82 1010.3
20260509083102 11 0 0.0 0.0 0.00 0.03 0.00 82 1010.4
20260509081600 11 0 0.0 0.0 0.00 0.03 0.00 82 1010.4
20260509080100 11 0 0.0 0.0 0.00 0.03 0.00 82 1010.3
20260509074607 11 0 0.0 0.0 0.00 0.03 0.00 82 1010.4
20260509073056 11 0 0.0 0.0 0.00 0.03 0.00 82 1010.4
20260509071612 11 0 0.0 0.0 0.00 0.03 0.00 83 1010.1
20260509070058 12 0 0.0 0.0 0.00 0.03 0.00 82 1010.4
20260509064601 12 0 0.0 0.0 0.00 0.03 0.00 83 1010.7
20260509063059 12 0 0.0 0.0 0.00 0.03 0.00 83 1010.8
20260509061603 12 0 0.0 0.0 0.00 0.03 0.00 83 1010.6
20260509054609 13 0 0.0 0.0 0.00 0.03 0.00 83 1010.5
20260509053100 13 0 0.0 0.0 0.00 0.03 0.00 83 1010.5
20260509051606 13 0 0.0 0.0 0.00 0.03 0.00 83 1010.8
20260509050057 13 0 0.0 0.0 0.00 0.03 0.00 83 1011.1
20260509044557 13 0 0.0 0.0 0.00 0.03 0.03 83 1011.1
20260509043102 13 0 0.0 0.0 0.00 0.03 0.03 83 1010.9
20260509041558 14 0 0.0 0.0 0.00 0.03 0.03 83 1011.0
20260509040058 14 0 0.0 0.0 0.00 0.03 0.03 84 1010.8
20260509034557 15 0 0.0 0.0 0.00 0.03 0.03 84 1010.8
20260509033058 15 0 0.0 0.0 0.00 0.03 0.03 84 1010.5
20260509031619 15 0 0.0 0.0 0.00 0.03 0.03 84 1010.2
20260509030100 16 0 0.0 0.0 0.00 0.03 0.03 84 1010.0
20260509024604 16 0 0.0 0.0 0.00 0.03 0.03 83 1009.7
20260509023102 16 0 0.0 0.0 0.00 0.03 0.03 83 1009.6
20260509021556 16 0 0.0 0.0 0.00 0.03 0.03 82 1009.4
20260509020058 17 0 0.0 0.0 0.00 0.03 0.03 82 1009.2
20260509014556 17 0 0.0 0.0 0.00 0.03 0.03 80 1009.0
20260509013110 18 0 0.0 0.0 0.00 0.03 0.03 79 1008.6
20260509011559 18 0 0.0 1.6 0.00 0.03 0.03 77 1008.2
20260509010058 18 0 0.0 4.8 0.00 0.03 0.03 76 1008.0
20260509004558 19 0 0.0 6.4 0.00 0.03 0.03 74 1008.0
20260509003100 20 232 1.6 9.7 0.00 0.03 0.03 73 1007.7
20260509001557 21 182 3.2 12.9 0.00 0.03 0.03 74 1007.3
20260509000108 21 0 0.0 8.0 0.03 0.03 0.03 74 1007.0
20260508234609 21 0 0.0 8.0 0.03 0.03 0.03 75 1006.1
20260508233100 20 253 0.0 1.6 0.03 0.03 0.03 80 1006.1
20260508231606 20 0 0.0 1.6 0.03 0.03 0.03 77 1005.6
20260508230107 20 0 1.6 6.4 0.00 0.00 0.00 76 1005.4
20260508224558 20 96 1.6 11.3 0.00 0.00 0.00 77 1005.1
20260508223057 20 136 1.6 14.5 0.00 0.00 0.00 77 1005.7
20260508221601 20 92 1.6 9.7 0.00 0.00 0.00 78 1006.4
20260508220058 22 128 0.0 3.2 0.00 0.00 0.00 73 1007.2
20260508214610 22 0 0.0 1.6 0.00 0.00 0.00 68 1007.5
20260508213115 22 69 0.0 3.2 0.00 0.00 0.00 68 1007.0
20260508211559 23 0 0.0 3.2 0.00 0.00 0.00 67 1007.5
20260508210056 24 0 0.0 1.6 0.00 0.00 0.00 61 1008.3
20260508204615 25 0 0.0 4.8 0.00 0.00 0.00 51 1008.5
20260508203102 25 0 0.0 4.8 0.00 0.00 0.00 50 1008.0
20260508201614 26 0 0.0 8.0 0.00 0.00 0.00 48 1008.1
20260508200133 26 147 1.6 8.0 0.00 0.00 0.00 49 1008.1
20260508194557 26 0 1.6 8.0 0.00 0.00 0.00 48 1008.5
20260508193059 26 0 1.6 12.9 0.00 0.00 0.00 46 1008.6
20260508191558 27 209 1.6 6.4 0.00 0.00 0.00 46 1008.8
20260508190104 26 0 0.0 9.7 0.00 0.00 0.00 48 1008.9
20260508184557 26 101 1.6 8.0 0.00 0.00 0.00 47 1008.8
20260508183056 26 221 1.6 9.7 0.00 0.00 0.00 47 1008.9
20260508181615 25 0 1.6 9.7 0.00 0.00 0.00 47 1009.1
20260508180118 26 214 1.6 8.0 0.00 0.00 0.00 48 1009.5
20260508174608 25 53 1.6 11.3 0.00 0.00 0.00 50 1009.3
20260508173056 25 51 0.0 9.7 0.00 0.00 0.00 54 1009.7
20260508171557 24 175 0.0 9.7 0.00 0.00 0.00 53 1009.9
20260508170059 24 178 1.6 14.5 0.00 0.00 0.00 51 1010.6
20260508164557 23 105 1.6 9.7 0.00 0.00 0.00 53 1010.9
20260508163056 23 236 3.2 11.3 0.00 0.00 0.00 51 1010.9
20260508161556 23 319 1.6 12.9 0.00 0.00 0.00 52 1011.0
20260508160056 22 194 1.6 8.0 0.00 0.00 0.00 55 1011.0
20260508154559 22 173 1.6 11.3 0.00 0.00 0.00 56 1011.2
20260508153100 21 186 1.6 11.3 0.00 0.00 0.00 60 1011.3
20260508151604 21 173 1.6 12.9 0.00 0.00 0.00 59 1011.6
20260508150055 21 203 1.6 11.3 0.00 0.00 0.00 60 1011.7
20260508144600 20 254 3.2 11.3 0.00 0.00 0.00 60 1012.0
20260508143100 20 198 1.6 12.9 0.00 0.00 0.00 63 1012.3
20260508141610 18 277 1.6 9.7 0.00 0.00 0.00 65 1012.5
20260508140113 18 132 1.6 9.7 0.00 0.00 0.00 67 1012.7
20260508134555 17 180 0.0 4.8 0.00 0.00 0.00 72 1012.7
20260508133103 16 0 0.0 9.7 0.00 0.00 0.00 74 1012.8
20260508131603 15 176 0.0 4.8 0.00 0.00 0.00 76 1012.7
20260508130056 14 117 1.6 6.4 0.00 0.00 0.00 78 1012.6
20260508124558 12 155 0.0 3.2 0.00 0.00 0.00 81 1012.8
20260508123058 11 105 0.0 6.4 0.00 0.00 0.00 82 1012.6
20260508121605 11 0 0.0 6.4 0.00 0.00 0.00 83 1012.4
20260508114604 10 0 0.0 3.2 0.00 0.00 0.00 84 1012.5
20260508113101 9 0 0.0 3.2 0.00 0.00 0.00 84 1012.4
20260508111602 9 0 0.0 1.6 0.00 0.00 0.00 84 1012.3
20260508110104 9 0 0.0 0.0 0.00 0.00 0.00 82 1012.1
20260508104558 9 0 0.0 0.0 0.00 0.00 0.00 81 1012.2
20260508103135 10 0 0.0 0.0 0.00 0.00 0.00 80 1012.2
20260508101627 10 0 0.0 0.0 0.00 0.00 0.00 79 1012.0
20260508100106 11 0 0.0 0.0 0.00 0.00 0.00 77 1012.0